Back to catalog

CZ-6A DEB

AliveSSO
NORAD 56582·DEBRIS·🇨🇳 China

Launched Nov 11, 2022 from Taiyuan Satellite Launch Center

Loading…

Next Passes (next 24 hours)

TLE

FreshSource: Space-Track

Epoch: Sep 14, 2026, 00:02 UTC

1 56582U 22151ADE 26257.00179789  .00000936  00000-0  41551-3 0  9997
2 56582  98.7593 276.1072 0010027  70.9047 289.3218 14.25380282187544

Track CZ-6A DEB in real time with AllMySat

Download on the App Store